Retour au catalogue

STARLINK-34706

ActifCommunicationsSSO
NORAD 64845·PAYLOAD·🇺🇸 United States

Lancé Jul 19, 2025 depuis Vandenberg Space Force Base

Loading…

Prochains Passages (prochaines 24 heures)

TLE

FraisSource: CelesTrak SupGP

Époque: Sep 15, 2026, 02:51 UTC

1 64845C 25152D   26258.11923611 -.00015867  00000+0 -49229-3 0  2584
2 64845  97.2846 108.7046 0001705  95.1566 358.0502 15.33464022    10

Suivez STARLINK-34706 en temps réel avec AllMySat

Download on the App Store